COSMOS 2491 DEB, 57569

Orbit data source: Space-Track

COSMOS 2491 DEB, 57569 is space debris in LEO originally from a launch on Wed, 25 Dec 2013 UTC launched from the Plesetsk Missile And Space Complex (PKMTR). Debris objects in space refer to the collection of defunct objects orbiting the Earth. Examples of debris include non-operational satellites, rocket bodies, and fragments generated from explosions, collisions, or faulty payload assembly.

Loading next visibility...
Identifier
57569, 2013-076BG
Orbit
LEO
Country
Flag of CISCIS
Related business
Manufacturer
TsNIIKhM
Mission
Spacecraft
Bus & Motor
Unknown
Mass
Unknown
Launch date (UTC)
2013-12-25 (12 years ago)
Launch vehicle
Unknown
Launch site
Plesetsk Missile And Space Complex (PKMTR)
Object type
Payload
Rocket body
Debris
Shape & HBR
Unknown shape, 0.1 m
Radar Cross Section
Small (<0.1 m²)

Expand to show TLE details & history
Last TLE update: 1 week ago

TLE from 1 week ago
0 COSMOS 2491 DEB
1 57569U 13076BG  26121.87156850  .00001378  00000-0  84608-2 0  9998
2 57569  82.4696 177.2033 0047620  65.8569 294.7486 12.54354632136678
Epoch: 2026-05-01T20:55Z
TLE epoch observation values (Epoch: 2026-05-01T20:55:03.518Z)
Latitude
-0.00004°
Longitude
3.64103°
Altitude
1,433.595 km
Speed
7.152 km/s
True Right ascension
11h 48m 48s
True Declination
0° 00' 00"
Sunlit
Object was in full shadow at epoch
Visualization orbit readout
Latitude
Unknown
Longitude
Unknown
Altitude
Unknown
Speed
Unknown
Apparent Right ascension
Unknown
Apparent Declination
Unknown
Sunlit
N/A
Visualization observer readout
Local Sidereal Time
10:39:20
Azimuth
Unknown
Elevation
Unknown
Doppler factor
Unknown
Orbital elements
Apogee altitude
1,480.917 km
Perigee altitude
1,406.422 km
Semi-major axis
7,821.806 km
Eccentricity
0.00476
Inclination
82.4696°
RAAN
177.2033°
Arg. of periapsis
65.8569°
True anomaly
294.2518°
Mean anomaly
294.7486°
Eccentric anomaly
294.50032°
Mean motion
3.13749 °/min
Orbital period
114.74 mins
BSTAR
0.0084608
Loading maneuver chart data...
Computing Atmospheric mass density...
Loading historical data...
Loading historical data...
Loading historical data...
Loading historical data...
Loading historical data...
Loading historical data...
Loading historical data...

Documentation

Showing up to 5 results
|